sat.trackr.live / text

‹ back to catalog

STARLINK-34407

NORAD 64347 · 2025-126D

PAYLOAD ACTIVE UNKNOWN

§ Identity

Operator
Country
US
Launch date
2025-06-13
Launch site
AFWTR
Launch vehicle
Mass (kg)
RCS (m²)

Purposes: comms

External: N2YO · Heavens-Above · Gunter

§ Orbital elements

Epoch: 2026-05-24T21:25:18.427296Z

Period
96.11 min
Inclination
70.0012°
Eccentricity
0.0003853
Mean motion
14.98342382 rev/d
Perigee alt
569.3 km
Apogee alt
574.7 km
Semi-major
6,950.2 km
B*
2.2514e-4
RAAN
202.4270°
Arg perigee
272.2650°
Mean anomaly
87.8067°
Rev number
5,209

§ Raw data

STARLINK-344071 64347U 25126D   26144.89257439  .00002595  00000+0  22514-3 0  99912 64347  70.0012 202.4270 0003853 272.2650  87.8067 14.98342382 52092

JSON: /api/v1/satellites/64347 · /tle

For live sub-satellite position, see the globe view (requires WebGL).

§ Visibility from observer

Set your observer location to see the next 7 days of passes ≥ 10°. The values pass through the URL so the page stays shareable.

No JS? Fill the form by hand. The geolocation button needs JavaScript.